Regional Weather Roundup
Issued by NWS

Home | Current Version | Previous Version | Text Only | Print | Product List | Glossary Off
Versions: 1 2 3 4 5 6 7 8 9 10 11 12 13 14 15 16 17 18 19 20 21 22 23 24 25 26 27 28 29 30 31 32 33 34 35 36 37 38 39 40 41 42 43 44 45 46 47 48 49 50

000
ASUS43 KIND 291109
RWRIN

WEATHER ROUNDUP FOR INDIANA
NATIONAL WEATHER SERVICE INDIANAPOLIS IN
700 AM EDT THU SEP 29 2016

NOTE: "FAIR" INDICATES FEW OR NO CLOUDS BELOW 12,000 FEET WITH NO
SIGNIFICANT WEATHER AND/OR OBSTRUCTIONS TO VISIBILITY.

* - STATION DOES NOT REPORT WEATHER SUCH AS PRECIPITATION OR FOG.

+ - STATION NOT QUALITY CONTROLLED BY THE NATIONAL WEATHER SERVICE.
    USE DATA WITH CAUTION...ESPECIALLY DEWPOINT AND RELATIVE
    HUMIDITY OBSERVATIONS.

INZ001>003-010>013-019-020-291200-
NORTHWEST INDIANA

CITY           SKY/WX    TMP DP  RH WIND       PRES   REMARKS
GARY /AIRPORT/ LGT RAIN  63  59  88 NE17G30   30.08R
KNOX *+        CLOUDY    55  43  62 N9        30.06R
LA PORTE +     CLOUDY   N/A N/A N/A NE7       30.08R
MICHIGAN CITY+ DRIZZLE   55  55 100 CALM      30.08S
MONTICELLO +   CLOUDY    55  52  88 NE6       30.03R
RENSSELAER +   CLOUDY    57  55  94 N9        30.06R
VALPARAISO     CLOUDY    56  54  93 NE8       30.08R

$$

LMZ046-743>745-291200-
SOUTHERN LAKE MICHIGAN

STATION/POSITION TIME  TEMP    WIND        PRES    WAVE
                       AIR SEA DIR/SP/G            HT
                 (UTC) (F)     (DEG/KT/KT) (MB)    (FT)
BURNS HARBOR     1040   62      60/ 24/ 27 1018.3R
MICHIGAN CITY    1040   60      30/ 20/ 21   N/A
5NW MICH CITY    1100   62 65   40/ 17/ 23   N/A     7

$$

INZ004-005-014>016-021>024-291200-
NORTH CENTRAL INDIANA

CITY           SKY/WX    TMP DP  RH WIND       PRES   REMARKS
ELKHART        CLOUDY   N/A N/A N/A MISG      30.05
GOSHEN         CLOUDY    57  54  89 NE7       30.05R
LOGANSPORT +   CLOUDY    54  54 100 N5        30.05R
ROCHESTER +    CLOUDY    57  57 100 CALM      30.05R
SOUTH BEND     CLOUDY    56  55  97 N8        30.07R
WARSAW +       CLOUDY    55  55 100 N3        30.05R

$$

INZ006>009-017-018-025>027-291200-
NORTHEAST INDIANA

CITY           SKY/WX    TMP DP  RH WIND       PRES   REMARKS
ANGOLA *+        N/A     55  45  67 VRB3      30.04R
AUBURN +       CLOUDY    55  54  94 NE5       30.04R
FORT WAYNE     CLOUDY    56  53  90 NE8       30.03R
HUNTINGTON +   CLOUDY    55  54  95 NE6       30.02R
KENDALLVILLE + CLOUDY    56  56 100 N5        30.04R

$$

INZ028-029-035-036-043>045-051>053-291200-
WEST CENTRAL INDIANA

CITY           SKY/WX    TMP DP  RH WIND       PRES   REMARKS
CRAWFORDSVL +  CLOUDY    52  52 100 N3        30.02R
GREENCASTLE +  CLOUDY    52  52 100 CALM      30.02R FOG
LAFAYETTE      NOT AVBL
TERRE HAUTE    CLOUDY    56  53  90 N8        30.01R

$$

INZ030>032-037>040-046>048-054>057-064-065-291200-
CENTRAL INDIANA

CITY           SKY/WX    TMP DP  RH WIND       PRES   REMARKS
COLUMBUS       CLOUDY    54  54 100 CALM      30.00
FISHERS *+     CLOUDY    52  52 100 CALM      30.01
FRANKFORT +    CLOUDY    57  55  94 N6        30.03R
GREENWOOD *+   CLOUDY    55  55 100 NE3       30.01R
INDIANAPOLIS   CLOUDY    56  52  86 N7        30.00R
-EAGLE CREEK   CLOUDY    56  52  86 N6        30.00R
KOKOMO *+      CLOUDY    55  54  94 N6        30.03R
MARION +       CLOUDY    54  53  96 CALM      30.02R FOG
MT COMFORT *+  CLOUDY    54  52  94 N5        30.01R
SHELBYVILLE    CLOUDY    56  52  86 CALM      29.99R
ZIONSVILLE +   CLOUDY    53  51  92 NE5       30.02R

$$

INZ033-034-041-042-049-050-058-059-291200-
EAST CENTRAL INDIANA

CITY           SKY/WX    TMP DP  RH WIND       PRES   REMARKS
MUNCIE         CLOUDY    55  53  93 N3        30.01R FOG

$$

INZ060-061-067>069-081>083-085>088-291200-
SOUTHWEST INDIANA

CITY           SKY/WX    TMP DP  RH WIND       PRES   REMARKS
EVANSVILLE     LGT RAIN  53  50  89 W6        30.04R
HUNTINGBURG *+   N/A     52  48  87 W5        30.02S
WASHINGTON +   RAIN      54  54 100 MISG      30.00S

$$

INZ062-063-066-070>080-084-089>092-291200-
SOUTH CENTRAL AND SOUTHEAST INDIANA

CITY           SKY/WX    TMP DP  RH WIND       PRES   REMARKS
BLOOMINGTON    CLOUDY    54  52  93 CALM      30.00R
MADISON *+     CLOUDY    54  52  94 CALM      30.02R
NORTH VERNON + DRIZZLE  N/A N/A N/A CALM      30.00R
SEYMOUR +      DRIZZLE   55  54  94 CALM      30.00R

$$





USA.gov is the U.S. government's official web portal to all federal, state and local government web resources and services.